Location: Starlight Observatory
(38.4029°N, 85.8936°W)
Time: 02:29:15
(UTC-04:00)

Daily predictions for brighter satellites

Satellite Brightness Start Highest point End
(mag) Time Altitude Azimuth Time Altitude Azimuth Time Altitude Azimuth
Cosmos 2263 Rocket 3.9 00:20:59 10° NNW 00:23:33 28° NNW 00:23:33 28° NNW
H-2A R/B 4.3 00:29:29 19° NW 00:29:29 19° NW 00:31:09 10° NW
Cosmos 2322 Rocket 4.0 00:29:50 27° NW 00:29:50 27° NW 00:33:34 10° N
ATLAS CENTAUR R/B 4.2 00:55:10 82° NE 00:55:10 82° NE 01:16:58 10° NE
Cosmos 2278 Rocket 4.5 01:07:22 10° N 01:09:23 19° NNE 01:09:23 19° NNE
Cosmos 2219 Rocket 4.4 02:05:32 20° N 02:05:32 20° N 02:07:16 10° NNE
SL-16 R/B 4.5 02:19:06 19° NE 02:19:06 19° NE 02:20:42 10° NNE
Cosmos 2333 Rocket 4.3 02:21:45 23° N 02:21:45 23° N 02:23:55 10° NNE
Cosmos 2237 Rocket 4.3 02:23:22 22° N 02:23:22 22° N 02:25:23 10° NNE
ATLAS 3B R/B 3.7 02:56:06 43° NNW 02:56:06 43° NNW 03:01:59 10° NNE
CZ-3A R/B 4.4 03:21:47 36° NW 03:22:13 37° NW 03:26:44 10° NNE
CZ-2D R/B 4.3 03:21:00 10° NE 03:23:57 18° E 03:23:57 18° E
CZ-4C R/B 3.5 03:33:52 36° N 03:33:52 36° N 03:37:38 10° NNE
Cosmos 2369 Rocket 3.7 03:35:07 10° N 03:40:09 33° ENE 03:41:29 29° E
ARIANE 5 R/B 4.1 03:36:44 10° NNE 03:40:23 31° ENE 03:40:23 31° ENE
S3M 4.4 03:49:07 57° N 03:49:07 57° N 03:54:01 10° N
USA 234 3.5 03:42:15 10° NE 03:47:57 59° E 03:47:57 59° E
ATLAS CENTAUR R/B 4.2 03:45:24 10° N 03:46:10 14° N 03:46:10 14° N
SL-16 R/B 3.4 03:52:07 37° ESE 03:53:48 46° ENE 03:59:39 10° N
Resurs 1-4 Rocket 3.2 03:54:11 10° NNE 03:58:41 38° E 03:58:41 38° E
SL-16 R/B 4.1 04:00:59 20° NW 04:00:59 20° NW 04:03:58 10° N
Cosmos 1943 Rocket 4.4 03:58:37 10° N 04:03:00 22° NE 04:07:20 10° ESE
NOSS 3-2 (A) 3.8 04:04:36 60° NNW 04:04:36 60° NNW 04:10:25 10° NNE
Cosmos 1553 Rocket 4.5 04:08:41 49° NNW 04:08:41 49° NNW 04:13:23 10° N
Cosmos 1386 Rocket 4.5 04:03:02 10° N 04:09:06 78° NE 04:09:06 78° NE
Cosmos 1745 Rocket 4.3 04:06:59 10° NNW 04:12:11 58° NW 04:12:11 58° NW
Cosmos 2251 Rocket 4.1 04:15:49 53° N 04:15:49 53° N 04:19:50 10° NNE
NOSS 3-3 (A) 4.4 04:08:32 10° NNW 04:16:05 90° WSW 04:24:05 10° SSE
NOSS 3-3 (C) 4.4 04:08:38 10° NNW 04:16:12 90° ESE 04:24:12 10° SSE
CENTAUR R/B 3.5 04:19:17 32° SE 04:20:31 34° ESE 04:26:23 10° NE
NOSS 3-2 (C) 3.6 04:20:58 62° NW 04:20:58 62° NW 04:27:23 10° NNE
Meteor 1-27 4.4 04:26:20 62° NNW 04:26:20 62° NNW 04:31:06 10° N
UNK 4.4 04:28:06 50° N 04:28:06 50° N 04:31:34 10° N
Cosmos 1733 Rocket 4.4 04:27:10 10° N 04:31:15 37° ENE 04:32:11 33° ESE
ATLAS 5 CENTAUR R/B 2.1 04:33:28 63° E 04:33:28 63° E 04:38:10 10° NE
EO 1 Del DPAF 4.3 04:43:01 44° NNE 04:43:01 44° NNE 04:45:53 10° N
UNKNOWN OBJECT B 3.8 04:41:41 10° NNE 04:44:16 42° NNE 04:44:16 42° NNE
Meteor 2-10 4.0 04:45:55 75° WSW 04:46:14 78° W 04:51:41 10° N
Cosmos 839 Rocket 4.2 04:39:12 10° NW 04:47:03 65° WSW 04:49:55 36° S
Cosmos 1869 3.8 04:50:13 58° ENE 04:50:13 58° ENE 04:53:53 10° NNE
Cosmos 494 Rocket 4.4 04:50:41 49° NW 04:50:41 49° NW 04:55:30 10° N
Cosmos 1892 4.3 04:52:37 10° NNW 04:54:28 27° NNW 04:54:28 27° NNW
Okean O Rocket 2.3 04:58:03 10° NNE 05:02:26 52° E 05:04:08 33° SSE
CZ-2D R/B 3.4 04:58:19 10° NNE 05:02:43 88° E 05:03:05 75° S
Meteor 2-3 Rocket 4.3 04:57:27 10° NNW 05:02:15 40° WNW 05:02:15 40° WNW
CZ-2D R/B 2.3 04:59:48 10° N 05:04:52 50° WNW 05:05:17 49° W
Cosmos 1302 Rocket 3.9 05:01:11 10° NNW 05:06:23 67° WSW 05:07:50 46° SSW
Atlas Centaur 2 3.8 05:07:31 13° SSE 05:07:43 13° SSE 05:09:53 10° SE
MOS 1-B 4.3 05:02:31 10° N 05:08:16 70° WNW 05:10:06 44° SW
Cosmos 2315 Rocket 4.1 05:07:44 45° SW 05:09:11 55° W 05:15:22 10° N
IRS-1D 4.2 05:06:13 10° N 05:10:57 36° WNW 05:11:09 36° WNW
Cosmos 1943 4.0 05:11:14 32° WNW 05:11:53 33° WNW 05:16:58 10° N
COSMOS 2406 3.7 05:08:57 25° S 05:12:12 59° ESE 05:17:52 10° NNE
Cosmos 389 Rocket 2.4 05:17:29 75° NNW 05:17:29 75° NNW 05:20:47 10° N
Sich 1 Rocket 3.8 05:13:09 10° N 05:17:32 69° E 05:21:55 10° SSE
ARIANE 5 R/B 3.6 05:16:04 10° N 05:20:26 28° WNW 05:20:44 28° WNW
CZ-4C R/B 4.5 05:19:43 10° NW 05:21:59 12° NNW 05:24:20 10° N
Cosmos 1184 Rocket 3.5 05:20:07 10° NNW 05:22:41 44° NW 05:22:41 44° NW
Cosmos 2369 Rocket 3.0 05:19:09 10° NW 05:23:07 31° W 05:23:07 31° W
Cosmos 1455 3.3 05:26:13 30° WNW 05:26:13 30° WNW 05:29:07 10° NNW
SeaSat 1 2.3 05:22:01 10° SSE 05:26:57 82° WSW 05:31:55 10° NNW
CZ-4B DEB 4.4 05:22:00 10° NNE 05:27:28 70° ESE 05:32:22 13° S
CZ-4B R/B 3.2 05:23:39 10° NNE 05:28:58 79° ESE 05:33:12 16° S
USA 234 4.0 05:25:31 10° NE 05:31:30 40° NNW 05:35:18 21° W
PSLV R/B 3.8 05:31:35 10° N 05:35:17 57° WNW 05:36:16 42° SW
SL-16 R/B 3.4 05:37:14 26° W 05:37:35 26° W 05:42:38 10° NW
Resurs 1-4 Rocket 3.3 05:34:31 10° NNW 05:38:42 24° WNW 05:39:46 23° W
COSMOS 2487 4.3 05:36:02 10° SSE 05:39:13 30° ESE 05:42:25 10° NE
Cosmos 1862 Rocket 4.3 05:40:57 31° W 05:41:39 33° WNW 05:45:39 10° NNW
CZ-2C R/B 3.6 05:38:42 10° S 05:43:05 61° WSW 05:47:28 10° NNW
Cosmos 1943 Rocket 2.3 05:41:34 10° NNW 05:47:03 52° WSW 05:52:28 10° S
Cosmos 1174 4.4 05:44:16 23° SW 05:47:43 72° WNW 05:52:14 10° NNE
Cosmos 1190 Rocket 4.1 05:45:57 10° S 05:51:07 75° ESE 05:56:19 10° NNE
Thor Agena Rocket 3.5 05:47:50 10° SSE 05:52:58 84° WSW 05:58:11 10° NNW
ADEOS II 2.7 05:48:13 10° NNE 05:53:24 57° E 05:58:33 10° S
Okean 1-7 3.2 05:50:23 10° S 05:54:40 76° E 05:59:00 10° N
Okean 2 Rocket 3.5 05:50:36 10° N 05:55:06 68° E 05:59:35 10° SSE
Cosmos 1408 2.7 05:52:18 10° NNW 05:55:58 55° W 05:59:38 10° S
Nadezhda 1 Rocket 4.0 05:50:16 10° SSW 05:56:28 69° W 06:02:49 10° N
PAYLOAD B 4.5 05:56:17 10° N 06:01:37 51° WNW 06:06:30 12° SW
SL-27 R/B 3.7 06:00:36 23° W 06:01:43 27° WNW 06:04:52 10° N
Cosmos 1992 Rocket 3.9 05:56:34 10° NNW 06:01:47 69° WSW 06:06:58 10° S
Aureole 3 Rocket 3.9 05:55:03 10° SSW 06:02:29 74° W 06:07:43 10° N
USA 32 4.1 05:58:20 10° SSW 06:03:30 60° W 06:08:41 10° N
Cosmos 1825 2.5 06:00:06 10° NNW 06:03:42 42° W 06:07:17 10° SSW
Centaur D-1A AC-31 2.9 05:58:26 16° WSW 06:04:36 32° SSW 06:08:17 10° SE
MOZ.5/SAFIR/RUBIN 5/SL-8 4.4 06:01:44 10° SSW 06:05:52 32° W 06:10:02 10° NNW
ADEOS Rocket 3.7 05:59:18 10° NNE 06:07:06 89° ESE 06:14:49 10° SSW
CENTAUR R/B 3.2 06:06:29 17° WSW 06:10:59 41° NW 06:17:28 10° NNE
Cosmos 1782 Rocket 3.7 06:13:01 10° NNW 06:17:15 52° W 06:21:27 10° S
Cosmos 1862 4.3 06:14:31 10° NNW 06:17:54 27° W 06:21:15 10° SSW
BREEZE-M DEB (TANK) 4.5 06:13:51 10° WNW 06:18:14 59° SW 06:31:34 10° SE
ATLAS 5 CENTAUR R/B 3.6 06:15:02 11° W 06:18:19 19° NW 06:22:00 10° N
Cosmos 1656 Rocket 3.6 06:13:00 10° NNW 06:18:20 61° WSW 06:23:38 10° S
NAVSTAR 52 R/B(PAM-D 2.5 06:19:07 22° W 06:20:02 79° N 06:21:41 10° E
AVUM R/B 3.1 06:17:17 10° SSW 06:20:26 87° WNW 06:23:46 10° NNE
PSLV R/B 3.4 06:20:14 10° WNW 06:23:41 75° NNE 06:27:04 10° E
Cosmos 2154 Rocket 4.0 06:19:04 10° NNW 06:25:21 66° W 06:31:37 10° S
Centaur D-1AR AC-36 4.4 06:22:53 10° SW 06:25:54 12° SSW 06:27:59 10° SSE
Meteor 1-26 Rocket 4.4 06:21:26 10° SSW 06:27:08 57° WNW 06:32:57 10° N
Cosmos 676 Rocket 4.0 06:23:37 10° SSW 06:28:47 84° WNW 06:34:01 10° NNE
Feng Yun 1-1 Rocket 4.2 06:23:27 10° N 06:28:48 70° WNW 06:34:12 10° SSW
CZ-4B R/B 4.3 06:30:17 10° NNW 06:32:48 18° WNW 06:35:22 10° WSW
Meteor 1-14 Rocket 4.4 06:31:47 10° NNW 06:37:33 62° W 06:43:22 10° S
Okean O Rocket 3.5 06:35:59 10° NNW 06:38:20 14° WNW 06:40:42 10° W
COSMO-SKYMED 1 4.0 06:34:35 10° SE 06:38:42 44° ENE 06:42:50 10° N
Okean-O 3.3 06:39:52 10° N 06:43:56 36° WNW 06:47:58 10° SW
Cosmos 2341 Rocket 4.1 06:40:27 10° NNW 06:46:36 58° W 06:52:46 10° S
